Overview Statistics Trail Chart Weather Telemetry Raw packets
 

This is the latest recevied weather packets stored in our database for station/object KC1BRV. If no packets are shown the sender has not sent any weather packets the latest 10 day(s).

<< 49 50 51 52 53 54 55 >>
Time Temp. Humidity Pressure Rain* Wind** Luminosity Snow
1788277071 17.78° C 98% 1018.7 hPa 0 mm - 115 W/m² -
1788276770 17.78° C 98% 1018.7 hPa 0 mm - 97 W/m² -
1788276469 17.78° C 98% 1018.6 hPa 1.27 mm - 69 W/m² -
1788276169 17.78° C 98% 1019 hPa 1.27 mm - 50 W/m² -
1788275859 18.33° C 98% 1019 hPa 0 mm - 49 W/m² -
1788275558 18.33° C 98% 1018.9 hPa 0 mm - 50 W/m² -
1788275258 18.33° C 98% 1018.8 hPa 1.78 mm - 56 W/m² -
1788274956 18.89° C 98% 1018.8 hPa 3.05 mm - 66 W/m² -
1788274654 18.89° C 98% 1018.6 hPa 3.05 mm - 59 W/m² -
1788274354 18.89° C 98% 1018.7 hPa 0 mm - 72 W/m² -
1788274049 18.89° C 98% 1018.7 hPa 0 mm - 88 W/m² -
1788273744 18.89° C 98% 1018.7 hPa 1.27 mm - 53 W/m² -
1788273440 18.89° C 98% 1018.8 hPa 1.27 mm - 36 W/m² -
1788273136 18.89° C 98% 1018.5 hPa 1.78 mm - 53 W/m² -
1788272832 18.89° C 98% 1018.6 hPa 1.78 mm - 60 W/m² -
1788272532 18.89° C 98% 1018.6 hPa 0 mm - 110 W/m² -
1788272228 18.89° C 97% 1018.5 hPa 0 mm - 90 W/m² -
1788271926 18.89° C 97% 1018.7 hPa 4.83 mm - 38 W/m² -
1788271626 19.44° C 97% 1018.7 hPa 10.67 mm - 38 W/m² -
1788271325 19.44° C 97% 1018.7 hPa 11.94 mm - 46 W/m² -
1788271020 19.44° C 97% 1018.8 hPa 15.49 mm - 71 W/m² -
1788270719 19.44° C 97% 1019 hPa 10.16 mm - 50 W/m² -
1788270416 19.44° C 97% 1018.8 hPa 1.27 mm - 28 W/m² -
1788270111 19.44° C 97% 1018.6 hPa 0 mm - 16 W/m² -
1788269824 19.44° C 97% 1018.5 hPa 1.78 mm - 22 W/m² -

* Rain latest hour (hover to see other rain measurements)
** Current wind speed in m/s (hover to see current wind gust speed)